Regional Weather Roundup
Issued by NWS Little Rock, AR

Home | Current Version | Previous Version | Graphics & Text | Print | Product List | Glossary On
Versions: 1 2 3 4 5 6 7 8 9 10 11 12 13 14 15 16 17 18 19 20 21 22 23 24 25 26 27 28 29 30 31 32 33 34 35 36 37 38 39 40 41 42 43 44 45 46 47 48 49 50
000
ASUS44 KLZK 251805
RWRLZK

WEATHER ROUNDUP FOR ARKANSAS
NATIONAL WEATHER SERVICE LITTLE ROCK AR
100 PM CDT SAT APR 25 2015

NOTE: "FAIR" INDICATES FEW OR NO CLOUDS BELOW 12,000 FEET WITH NO
SIGNIFICANT WEATHER AND/OR OBSTRUCTIONS TO VISIBILITY.

ARZ001-003-010-029-251900-
NORTHWEST ARKANSAS

CITY           SKY/WX    TMP DP  RH WIND       PRES   REMARKS
FAYETTEVILLE   SUNNY     74  55  51 W13G24    29.61F
6HR MIN TEMP:  59; 6HR MAX TEMP:  74;

FORT SMITH     SUNNY     78  52  40 W14G21    29.60F
6HR MIN TEMP:  57; 6HR MAX TEMP:  78; 6HR PCP: TRACE;

HARRISON       LGT RAIN  76  49  38 W23G30    29.57S
6HR MIN TEMP:  62; 6HR MAX TEMP:  76; 6HR PCP: TRACE;

BENTONVILLE    SUNNY     73  52  46 W20       29.60F
6HR MIN TEMP:  59; 6HR MAX TEMP:  73;

ROGERS         SUNNY     73  52  47 W21G26    29.59F
6HR MIN TEMP:  59; 6HR MAX TEMP:  73;

SILOAM SPGS    SUNNY     75  52  43 W14G23    29.61F
6HR MIN TEMP:  57; 6HR MAX TEMP:  75;

HIGHFILL       SUNNY     75  52  44 W20G26    29.58F
6HR MIN TEMP:  59; 6HR MAX TEMP:  75; 6HR PCP: TRACE;

SPRINGDALE     SUNNY     73  52  46 W12G29    29.62F
$$

ARZ004-005-016-251900-
NORTH CENTRAL ARKANSAS

CITY           SKY/WX    TMP DP  RH WIND       PRES   REMARKS
BATESVILLE     SUNNY     79  57  47 SW15G21   29.56F
6HR MIN TEMP:  63; 6HR MAX TEMP:  79;

FLIPPIN        MOSUNNY   81  50  34 W23G30    29.52F
6HR MIN TEMP:  61; 6HR MAX TEMP:  81;

MTN HOME       SUNNY     78  48  34 W12G23    29.53F
6HR MIN TEMP:  59; 6HR MAX TEMP:  79;

$$

ARZ040-041-251900-
WEST CENTRAL ARKANSAS

CITY           SKY/WX    TMP DP  RH WIND       PRES   REMARKS
MENA           SUNNY     79  57  47 SW12      29.65F
MOUNT IDA      MOSUNNY   79  56  45 VRB7      29.61F
6HR MIN TEMP:  61; 6HR MAX TEMP:  80;

$$

ARZ009-017-025-026-028-251900-
NORTHEAST ARKANSAS

CITY           SKY/WX    TMP DP  RH WIND       PRES   REMARKS
CORNING          N/A     75  64  69 SW21      29.53S
JONESBORO      MOSUNNY   72  63  73 SW23G35   29.55F
6HR MIN TEMP:  61; 6HR MAX TEMP:  72;

NEWPORT        SUNNY     77  64  63 S21       29.57F
6HR MIN TEMP:  61; 6HR MAX TEMP:  77;

WALNUT RIDGE   SUNNY     77  59  53 SW21G26   29.53F
6HR MIN TEMP:  61; 6HR MAX TEMP:  77;

BLYTHEVILLE    PTSUNNY   75  65  70 SW18G32   29.55F
6HR MIN TEMP:  57; 6HR MAX TEMP:  75;

$$

ARZ022-023-033-042-044-251900-
CENTRAL ARKANSAS

CITY           SKY/WX    TMP DP  RH WIND       PRES   REMARKS
LITTLE ROCK    MOSUNNY   78  61  55 SW14G20   29.61F
6HR MIN TEMP:  64; 6HR MAX TEMP:  78;

N LITTLE ROCK  MOSUNNY   76  64  65 SW12G18   29.61F
6HR MIN TEMP:  62; 6HR MAX TEMP:  77;

JACKSONVILLE   SUNNY     78  61  55 SW14      29.60F
6HR MIN TEMP:  63; 6HR MAX TEMP:  78;

SEARCY         SUNNY     76  64  66 SW12      29.60F
6HR MIN TEMP:  62; 6HR MAX TEMP:  76;

HOT SPRINGS    SUNNY     79  62  56 SW10G18   29.63F
6HR MIN TEMP:  64; 6HR MAX TEMP:  79;

RUSSELLVILLE   SUNNY     77  60  55 W6        29.59F
6HR MIN TEMP:  60; 6HR MAX TEMP:  78;

CLINTON        FAIR      77  57  50 SW13G18   29.59F
$$

ARZ036-251900-
EAST ARKANSAS

CITY           SKY/WX    TMP DP  RH WIND       PRES   REMARKS
WEST MEMPHIS   CLOUDY    74  67  78 SW12G21   29.60F
6HR MIN TEMP:  62; 6HR MAX TEMP:  74;

$$

ARZ050-053-066-070-073-251900-
SOUTHWEST ARKANSAS

CITY           SKY/WX    TMP DP  RH WIND       PRES   REMARKS
ARKADELPHIA    FAIR      78  67  68 SW13      29.64F
6HR MIN TEMP:  62; 6HR MAX TEMP:  78;

CAMDEN         CLOUDY    81  66  61 E8        29.65F
TEXARKANA      SUNNY     83  60  45 W15G22    29.66F
6HR MIN TEMP:  65; 6HR MAX TEMP:  83;

EL DORADO      PTSUNNY   81  67  62 SW15      29.66F
6HR MIN TEMP:  64; 6HR MAX TEMP:  82;

DE QUEEN       SUNNY     79  58  48 W10       29.63F
6HR MIN TEMP:  63; 6HR MAX TEMP:  79;

$$

ARZ056-057-069-251900-
SOUTHEAST ARKANSAS

CITY           SKY/WX    TMP DP  RH WIND       PRES   REMARKS
PINE BLUFF     CLOUDY    75  66  73 SW13      29.63F
6HR MIN TEMP:  64; 6HR MAX TEMP:  75;

STUTTGART      CLOUDY    75  64  69 SW20      29.63F
6HR MIN TEMP:  63; 6HR MAX TEMP:  75;

MONTICELLO     CLOUDY    80  72  76 SW10      29.65F
6HR MIN TEMP:  65; 6HR MAX TEMP:  80;


$$




USA.gov is the U.S. government's official web portal to all federal, state and local government web resources and services.